{"data":{"norad_id":66087,"epoch":"2026-05-25T03:55:16.993632Z","epoch_age_seconds":61674,"freshness":"FRESH","line1":"1 66087U 25236B   26145.16339113  .00016591  00000+0  57103-3 0  9990","line2":"2 66087  53.1592 108.6184 0001462  87.2193 272.8975 15.30200691 34593","mean_motion":15.30200691,"eccentricity":0.0001462,"inclination_deg":53.1592,"raan_deg":108.6184,"arg_perigee_deg":87.2193,"mean_anomaly_deg":272.8975,"bstar":0.00057103,"rev_number":3459,"period_min":94.105303210845,"perigee_km":474.21104644775,"apogee_km":476.21496598956,"semimajor_km":6853.3500062187,"source":"CELESTRAK","updated_at":"2026-05-25T13:38:21.026681Z"}}